TimeCDT,TemperatureF,Dew PointF,Humidity,Sea Level PressureIn,VisibilityMPH,Wind Direction,Wind SpeedMPH,Gust SpeedMPH,PrecipitationIn,Events,Conditions,WindDirDegrees,DateUTC
12:15 AM,47.8,43.2,84,29.94,10.0,Calm,Calm,-,N/A,,Clear,0,2012-11-02 05:15:00
12:35 AM,47.8,43.9,86,29.94,10.0,Calm,Calm,-,N/A,,Clear,0,2012-11-02 05:35:00
12:55 AM,45.9,43.0,90,29.94,10.0,Calm,Calm,-,N/A,,Clear,0,2012-11-02 05:55:00
1:15 AM,45.5,44.1,95,29.94,10.0,Calm,Calm,-,N/A,,Clear,0,2012-11-02 06:15:00
1:35 AM,43.5,42.6,97,29.94,10.0,Calm,Calm,-,N/A,,Clear,0,2012-11-02 06:35:00
1:55 AM,44.6,42.8,93,29.94,10.0,Calm,Calm,-,N/A,,Clear,0,2012-11-02 06:55:00
2:15 AM,42.4,42.4,100,29.93,10.0,Calm,Calm,-,N/A,,Clear,0,2012-11-02 07:15:00
2:35 AM,42.3,42.3,100,29.94,10.0,Calm,Calm,-,N/A,,Clear,0,2012-11-02 07:35:00
2:55 AM,43.2,43.2,100,29.94,10.0,Calm,Calm,-,N/A,,Clear,0,2012-11-02 07:55:00
3:15 AM,43.3,43.0,99,29.94,10.0,Calm,Calm,-,N/A,,Clear,0,2012-11-02 08:15:00
3:35 AM,42.1,42.3,100,29.94,10.0,Calm,Calm,-,N/A,,Clear,0,2012-11-02 08:35:00
3:55 AM,41.0,41.2,100,29.94,10.0,ENE,3.5,-,N/A,,Clear,70,2012-11-02 08:55:00
4:15 AM,41.4,41.4,100,29.93,10.0,Calm,Calm,-,N/A,,Clear,0,2012-11-02 09:15:00
4:35 AM,42.1,42.1,100,29.93,10.0,Calm,Calm,-,N/A,,Clear,0,2012-11-02 09:35:00
4:55 AM,41.5,41.7,100,29.93,10.0,Calm,Calm,-,N/A,,Clear,0,2012-11-02 09:55:00
5:15 AM,41.0,41.2,100,29.93,10.0,Calm,Calm,-,N/A,,Clear,0,2012-11-02 10:15:00
5:35 AM,40.1,40.3,100,29.92,10.0,Calm,Calm,-,N/A,,Clear,0,2012-11-02 10:35:00
5:55 AM,40.1,40.3,100,29.92,10.0,ENE,3.5,-,N/A,,Clear,70,2012-11-02 10:55:00
6:15 AM,41.0,41.2,100,29.92,10.0,ENE,4.6,-,N/A,,Clear,60,2012-11-02 11:15:00
6:35 AM,47.5,45.5,93,29.92,10.0,ENE,4.6,-,N/A,,Clear,70,2012-11-02 11:35:00
6:55 AM,49.1,43.9,82,29.93,10.0,ENE,4.6,-,N/A,,Clear,70,2012-11-02 11:55:00
7:15 AM,49.1,44.2,83,29.93,10.0,East,4.6,-,N/A,,Clear,80,2012-11-02 12:15:00
7:35 AM,47.5,43.7,87,29.94,10.0,East,3.5,-,N/A,,Clear,80,2012-11-02 12:35:00
7:55 AM,46.4,43.2,88,29.95,10.0,Calm,Calm,-,N/A,,Clear,0,2012-11-02 12:55:00
8:15 AM,46.4,43.7,90,29.95,10.0,East,4.6,-,N/A,,Clear,80,2012-11-02 13:15:00
8:35 AM,47.5,45.0,91,29.95,10.0,East,5.8,-,N/A,,Clear,80,2012-11-02 13:35:00
8:55 AM,49.1,45.1,86,29.95,10.0,East,6.9,-,N/A,,Clear,90,2012-11-02 13:55:00
9:15 AM,49.5,43.7,81,29.95,10.0,ESE,5.8,-,N/A,,Clear,110,2012-11-02 14:15:00
9:35 AM,52.5,45.0,75,29.95,10.0,ESE,9.2,-,N/A,,Clear,120,2012-11-02 14:35:00
9:55 AM,54.0,45.1,72,29.95,10.0,ESE,8.1,-,N/A,,Clear,120,2012-11-02 14:55:00
10:15 AM,55.0,44.4,67,29.94,10.0,SE,9.2,-,N/A,,Clear,130,2012-11-02 15:15:00
10:35 AM,57.0,45.1,64,29.93,10.0,SE,9.2,-,N/A,,Clear,130,2012-11-02 15:35:00
10:55 AM,58.8,45.7,62,29.93,10.0,ESE,8.1,-,N/A,,Clear,120,2012-11-02 15:55:00
11:15 AM,59.9,45.5,59,29.92,10.0,ESE,6.9,-,N/A,,Clear,120,2012-11-02 16:15:00
11:35 AM,61.9,46.6,57,29.92,10.0,SE,9.2,-,N/A,,Clear,130,2012-11-02 16:35:00
11:55 AM,64.8,47.8,54,29.92,10.0,SSE,6.9,-,N/A,,Clear,150,2012-11-02 16:55:00
12:15 PM,66.6,48.9,53,29.90,10.0,SE,9.2,-,N/A,,Clear,140,2012-11-02 17:15:00
12:35 PM,68.5,49.8,51,29.89,10.0,SSE,11.5,-,N/A,,Clear,150,2012-11-02 17:35:00
12:55 PM,69.1,49.3,49,29.89,10.0,South,8.1,-,N/A,,Clear,170,2012-11-02 17:55:00
1:15 PM,70.5,49.6,47,29.88,10.0,SSE,10.4,-,N/A,,Clear,150,2012-11-02 18:15:00
1:35 PM,73.8,51.4,45,29.87,10.0,SSW,6.9,-,N/A,,Clear,200,2012-11-02 18:35:00
1:55 PM,74.3,51.4,45,29.86,10.0,South,10.4,-,N/A,,Clear,180,2012-11-02 18:55:00
2:35 PM,78.1,51.6,40,29.85,10.0,South,10.4,-,N/A,,Clear,190,2012-11-02 19:35:00
2:55 PM,77.9,52.0,40,29.84,10.0,SSW,9.2,-,0.03,,Clear,200,2012-11-02 19:55:00
3:15 PM,78.4,52.0,40,29.83,-9999.0,South,11.5,-,N/A,,Unknown,190,2012-11-02 20:15:00
3:35 PM,77.9,52.0,40,-9999,10.0,South,11.5,-,N/A,,Clear,180,2012-11-02 20:35:00
3:55 PM,-9999,-9999,N/A,29.82,10.0,South,10.4,-,N/A,,Clear,180,2012-11-02 20:55:00
4:15 PM,78.3,53.8,43,29.81,10.0,South,10.4,-,N/A,,Clear,180,2012-11-02 21:15:00
4:35 PM,78.4,54.0,43,29.81,10.0,SSW,11.5,-,N/A,,Clear,200,2012-11-02 21:35:00
4:55 PM,77.9,54.1,44,29.81,10.0,South,9.2,-,N/A,,Clear,180,2012-11-02 21:55:00
5:15 PM,76.8,52.9,43,29.80,10.0,South,9.2,-,N/A,,Clear,190,2012-11-02 22:15:00
5:35 PM,76.1,53.1,45,29.80,10.0,South,8.1,-,N/A,,Clear,180,2012-11-02 22:35:00
5:55 PM,76.1,54.5,47,-9999,10.0,South,5.8,-,N/A,,Clear,180,2012-11-02 22:55:00
6:15 PM,73.8,54.1,50,29.81,10.0,Calm,Calm,-,N/A,,Clear,0,2012-11-02 23:15:00
6:35 PM,71.1,53.6,54,29.81,10.0,SE,3.5,-,N/A,,Clear,140,2012-11-02 23:35:00
6:55 PM,70.9,54.5,56,29.82,10.0,SE,3.5,-,N/A,,Clear,140,2012-11-02 23:55:00
7:15 PM,69.8,54.3,58,29.82,10.0,SSE,3.5,-,N/A,,Clear,150,2012-11-03 00:15:00
7:35 PM,66.7,53.4,62,29.83,10.0,SSE,3.5,-,N/A,,Clear,150,2012-11-03 00:35:00
7:55 PM,67.6,53.6,61,29.83,10.0,SSE,4.6,-,N/A,,Clear,160,2012-11-03 00:55:00
8:15 PM,66.4,52.7,61,29.83,10.0,South,4.6,-,N/A,,Clear,170,2012-11-03 01:15:00
8:35 PM,65.7,52.2,62,29.82,10.0,South,4.6,-,N/A,,Clear,170,2012-11-03 01:35:00
8:55 PM,64.0,51.3,63,29.82,10.0,South,8.1,-,N/A,,Clear,180,2012-11-03 01:55:00
9:15 PM,63.0,51.4,66,29.82,10.0,South,8.1,-,N/A,,Clear,180,2012-11-03 02:15:00
9:35 PM,64.8,51.6,62,29.82,10.0,South,9.2,-,N/A,,Clear,190,2012-11-03 02:35:00
9:55 PM,67.8,52.7,58,29.83,-9999.0,SSW,10.4,-,N/A,,Clear,200,2012-11-03 02:55:00
10:15 PM,68.4,52.7,57,29.84,10.0,South,9.2,-,N/A,,Clear,190,2012-11-03 03:15:00
10:35 PM,68.4,52.9,58,29.84,10.0,South,8.1,-,N/A,,Clear,190,2012-11-03 03:35:00
10:55 PM,68.2,52.9,58,29.84,10.0,SSW,9.2,-,N/A,,Clear,200,2012-11-03 03:55:00
11:15 PM,68.4,52.7,57,29.84,10.0,SSW,9.2,-,N/A,,Clear,200,2012-11-03 04:15:00
11:35 PM,67.5,51.8,57,29.84,10.0,SSW,8.1,-,N/A,,Clear,200,2012-11-03 04:35:00
11:55 PM,67.8,51.4,56,29.84,10.0,SSW,11.5,-,N/A,,Clear,210,2012-11-03 04:55:00